Date String (YYYY-MM-DD hh:mm:ss) UTC,Instrument flags,absolute air pressure of the measurement (hPa),sample flow rate (lpm),inlet stack bypass flow (lpm),air temperature of the measurement (°C),ambient temperature measured by the external sensor (°C),aerosol sample conditioner tube jacket temperature (°C),OPC LED temperature (°C),internal box temperature (°C),relative humidity of the measurement (%),span deviation,mass concentration of particles derived from Lorenz-Mie calculation of OPC scattering (μg/m³),mass concentration of particles derived from Lorenz-Mie calculation of OPC scattering (μg/m³),mass concentration of particles derived from Lorenz-Mie calculation of OPC scattering (μg/m³)
DateTimeUTC,F1_M11,P_M11,Q1_M11,Q2_M11,T1_M11,T2_M11,T3_M11,T4_M11,T5_M11,U1_M11,ZSPAN_M11,X0_M11,X2_M11,X1_M11
2023-08-11 21:00:00,SystemResetWarning,0830.8,4.99,000.00,028.6,025.7,000.0,036.7,030.0,26.2,0000.0,0012.54,0004.68,0003.99
2023-08-11 21:01:00,SystemResetWarning,0830.8,5.02,000.00,028.5,024.6,000.0,036.7,029.8,26.3,0000.0,0012.25,0004.65,0003.98
2023-08-11 21:02:00,SystemResetWarning,0830.9,5.00,000.00,028.5,024.8,000.0,036.6,029.8,24.3,0000.0,0012.29,0004.66,0003.99
2023-08-11 21:03:00,SystemResetWarning,0830.8,4.99,000.00,028.4,025.2,000.0,036.7,029.8,24.8,0000.0,0012.20,0004.67,0004.00
2023-08-11 21:04:00,SystemResetWarning,0830.8,5.00,000.00,028.4,025.6,000.0,036.7,029.9,25.2,0000.0,0012.09,0004.68,0004.00
2023-08-11 21:05:00,SystemResetWarning,0830.7,5.01,000.00,028.4,026.1,000.0,036.8,030.1,24.6,0000.0,0013.40,0004.72,0004.01
2023-08-11 21:06:00,SystemResetWarning,0830.8,5.00,000.00,028.5,026.5,000.0,036.8,030.2,26.4,0000.0,0013.63,0004.72,0004.01
2023-08-11 21:07:00,SystemResetWarning,0830.8,5.00,000.00,028.5,026.8,000.0,036.8,030.3,26.6,0000.0,0013.60,0004.72,0004.01
2023-08-11 21:08:00,SystemResetWarning,0830.8,5.00,000.00,028.6,027.1,000.0,036.8,030.4,27.0,0000.0,0012.00,0004.74,0004.01
2023-08-11 21:09:00,SystemResetWarning,0830.8,4.99,000.00,028.6,026.5,000.0,036.8,030.3,28.6,0000.0,0011.97,0004.81,0004.01
2023-08-11 21:10:00,SystemResetWarning,0830.8,5.01,000.00,028.6,024.9,000.0,036.7,029.9,30.0,0000.0,0012.64,0004.88,0004.02
2023-08-11 21:11:00,SystemResetWarning,0830.7,5.01,000.00,028.5,024.5,000.0,036.6,029.7,30.5,0000.0,0012.95,0004.92,0004.01
2023-08-11 21:12:00,SystemResetWarning,0830.7,4.99,000.00,028.4,024.8,000.0,036.6,029.6,30.8,0000.0,0012.52,0004.93,0004.00
2023-08-11 21:13:00,SystemResetWarning,0830.7,5.00,000.00,028.3,025.2,000.0,036.7,029.7,29.6,0000.0,0012.64,0004.90,0003.99
2023-08-11 21:14:00,SystemResetWarning,0830.7,5.01,000.00,028.4,025.7,000.0,036.7,029.9,31.3,0000.0,0013.54,0004.91,0003.99
2023-08-11 21:15:00,SystemResetWarning,0830.7,5.00,000.00,028.4,026.1,000.0,036.7,030.1,30.4,0000.0,0013.61,0004.91,0003.99
2023-08-11 21:16:00,SystemResetWarning,0830.7,5.00,000.00,028.5,026.5,000.0,036.8,030.2,31.4,0000.0,0012.41,0004.88,0003.99
2023-08-11 21:17:00,SystemResetWarning,0830.7,5.00,000.00,028.5,026.9,000.0,036.8,030.3,33.2,0000.0,0012.25,0004.84,0003.98
2023-08-11 21:18:00,SystemResetWarning,0830.7,5.00,000.00,028.6,027.2,000.0,036.8,030.4,33.3,0000.0,0012.91,0004.85,0003.97
2023-08-11 21:19:00,SystemResetWarning,0830.7,4.99,000.00,028.6,026.8,000.0,036.8,030.3,33.1,0000.0,0013.41,0004.86,0003.98
2023-08-11 21:20:00,SystemResetWarning,0830.7,4.99,000.00,028.5,025.2,000.0,036.7,029.8,31.3,0000.0,0014.30,0004.80,0003.97
2023-08-11 21:21:00,SystemResetWarning,0830.6,5.00,000.00,028.4,024.5,000.0,036.6,029.6,31.1,0000.0,0013.89,0004.75,0003.95
2023-08-11 21:22:00,SystemResetWarning,0830.6,5.02,000.00,028.4,024.7,000.0,036.6,029.6,32.4,0000.0,0013.34,0004.69,0003.93
2023-08-11 21:23:00,SystemResetWarning,0830.6,5.00,000.00,028.3,025.1,000.0,036.6,029.7,28.7,0000.0,0013.79,0004.68,0003.92
2023-08-11 21:24:00,SystemResetWarning,0830.6,5.00,000.00,028.3,025.6,000.0,036.7,029.9,27.2,0000.0,0014.83,0004.70,0003.92
2023-08-11 21:25:00,SystemResetWarning,0830.6,5.00,000.00,028.4,026.0,000.0,036.7,030.0,32.7,0000.0,0014.72,0004.67,0003.91
2023-08-11 21:26:00,SystemResetWarning,0830.6,5.00,000.00,028.4,026.4,000.0,036.7,030.1,29.3,0000.0,0015.60,0004.67,0003.90
2023-08-11 21:27:00,SystemResetWarning,0830.7,5.00,000.00,028.5,026.8,000.0,036.8,030.2,27.7,0000.0,0016.11,0004.71,0003.89
2023-08-11 21:28:00,SystemResetWarning,0830.6,5.00,000.00,028.5,027.1,000.0,036.8,030.4,28.8,0000.0,0016.55,0004.75,0003.88
2023-08-11 21:29:00,SystemResetWarning,0830.6,5.00,000.00,028.6,027.4,000.0,036.8,030.5,31.1,0000.0,0015.91,0004.79,0003.87
2023-08-11 21:30:00,SystemResetWarning,0830.6,4.98,000.00,028.6,026.4,000.0,036.8,030.2,28.9,0000.0,0015.37,0004.79,0003.87
2023-08-11 21:31:00,SystemResetWarning,0830.6,5.00,000.00,028.5,024.9,000.0,036.7,030.0,28.6,0000.0,0014.22,0004.79,0003.87
2023-08-11 21:32:00,SystemResetWarning,0830.7,5.01,000.00,028.5,024.7,000.0,036.6,029.8,30.0,0000.0,0014.45,0004.82,0003.87
2023-08-11 21:33:00,SystemResetWarning,0830.6,5.01,000.00,028.4,025.0,000.0,036.6,029.7,28.6,0000.0,0015.11,0004.86,0003.89
2023-08-11 21:34:00,SystemResetWarning,0830.7,4.99,000.00,028.4,025.4,000.0,036.7,029.8,27.9,0000.0,0014.94,0004.89,0003.89
2023-08-11 21:35:00,SystemResetWarning,0830.5,5.00,000.00,028.4,025.9,000.0,036.7,030.0,25.9,0000.0,0013.87,0004.89,0003.89
2023-08-11 21:36:00,SystemResetWarning,0830.5,5.00,000.00,028.4,026.3,000.0,036.7,030.1,25.6,0000.0,0013.02,0004.96,0003.90
2023-08-11 21:37:00,SystemResetWarning,0830.6,5.00,000.00,028.5,026.7,000.0,036.8,030.3,26.8,0000.0,0012.21,0004.96,0003.90
2023-08-11 21:38:00,SystemResetWarning,0830.6,5.00,000.00,028.6,027.1,000.0,036.8,030.4,26.8,0000.0,0012.11,0005.02,0003.91
2023-08-11 21:39:00,SystemResetWarning,0830.7,4.99,000.00,028.6,027.3,000.0,036.8,030.5,25.7,0000.0,0012.17,0005.03,0003.93
2023-08-11 21:40:00,SystemResetWarning,0830.5,5.00,000.00,028.7,026.7,000.0,036.8,030.3,25.6,0000.0,0013.04,0005.01,0003.95
2023-08-11 21:41:00,SystemResetWarning,0830.5,5.00,000.00,028.6,025.2,000.0,036.7,030.0,26.1,0000.0,0013.65,0004.99,0003.95
2023-08-11 21:42:00,SystemResetWarning,0830.4,5.01,000.00,028.5,024.9,000.0,036.6,029.9,25.6,0000.0,0014.75,0005.08,0003.97
2023-08-11 21:43:00,SystemResetWarning,0830.4,5.01,000.00,028.5,025.2,000.0,036.7,029.9,24.7,0000.0,0015.52,0005.12,0003.99
2023-08-11 21:44:00,SystemResetWarning,0830.5,5.00,000.00,028.5,025.6,000.0,036.7,029.9,24.2,0000.0,0014.97,0005.17,0003.99
2023-08-11 21:45:00,SystemResetWarning,0830.5,4.99,000.00,028.5,026.0,000.0,036.8,030.0,24.2,0000.0,0014.72,0005.12,0004.00
2023-08-11 21:46:00,SystemResetWarning,0830.6,5.00,000.00,028.5,026.4,000.0,036.8,030.2,24.6,0000.0,0014.74,0005.08,0004.01
2023-08-11 21:47:00,SystemResetWarning,0830.6,5.00,000.00,028.6,026.8,000.0,036.8,030.3,24.6,0000.0,0014.98,0005.04,0004.01
2023-08-11 21:48:00,SystemResetWarning,0830.6,5.00,000.00,028.6,027.2,000.0,036.9,030.4,24.1,0000.0,0015.43,0004.99,0004.01
2023-08-11 21:49:00,SystemResetWarning,0830.5,4.98,000.00,028.7,026.7,000.0,036.8,030.3,23.5,0000.0,0015.00,0004.90,0004.00
2023-08-11 21:50:00,SystemResetWarning,0830.5,5.01,000.00,028.6,025.2,000.0,036.7,030.0,23.0,0000.0,0014.44,0004.83,0003.99
2023-08-11 21:51:00,SystemResetWarning,0830.4,5.00,000.00,028.5,024.8,000.0,036.7,029.9,22.9,0000.0,0013.51,0004.82,0003.99
2023-08-11 21:52:00,SystemResetWarning,0830.4,5.01,000.00,028.5,025.1,000.0,036.7,029.8,23.6,0000.0,0012.58,0004.82,0004.00
2023-08-11 21:53:00,SystemResetWarning,0830.4,5.00,000.00,028.5,025.5,000.0,036.7,029.9,23.6,0000.0,0011.50,0004.72,0003.99
2023-08-11 21:54:00,SystemResetWarning,0830.4,5.00,000.00,028.5,026.0,000.0,036.8,030.0,23.4,0000.0,0009.92,0004.64,0003.98
2023-08-11 21:55:00,SystemResetWarning,0830.4,5.00,000.00,028.5,026.4,000.0,036.8,030.2,23.4,0000.0,0009.81,0004.57,0003.98
2023-08-11 21:56:00,SystemResetWarning,0830.5,5.01,000.00,028.6,026.8,000.0,036.8,030.3,22.9,0000.0,0009.69,0004.58,0003.97
2023-08-11 21:57:00,SystemResetWarning,0830.6,5.00,000.00,028.6,027.1,000.0,036.8,030.4,23.8,0000.0,0009.50,0004.61,0003.97
2023-08-11 21:58:00,SystemResetWarning,0830.4,5.00,000.00,028.7,027.3,000.0,036.9,030.5,24.9,0000.0,0009.06,0004.57,0003.96
2023-08-11 21:59:00,SystemResetWarning,0830.4,4.99,000.00,028.7,026.2,000.0,036.8,030.2,26.0,0000.0,0008.74,0004.59,0003.96
